| time (UTC) | temp F | wind direction | speed knots | gust knots | rain 1hr in | rain 24hr in | rain mn in | humidity % | barometer mb |
| 20260507015009 | 86 | 0 | 2.6 | 6.1 | 0.00 | 0.00 | 0.00 | ||
| 20260507014501 | 86 | 0 | 2.6 | 4.3 | 0.00 | 0.00 | 0.00 | ||
| 20260507013508 | 87 | 0 | 0.0 | 4.3 | 0.00 | 0.00 | 0.00 | ||
| 20260507013009 | 87 | 351 | 3.5 | 4.3 | 0.00 | 0.00 | 0.00 | ||
| 20260507012016 | 88 | 188 | 0.0 | 7.0 | 0.00 | 0.00 | 0.00 | ||
| 20260507011507 | 88 | 0 | 3.5 | 7.0 | 0.00 | 0.00 | 0.00 | ||
| 20260507011009 | 88 | 0 | 2.6 | 7.0 | 0.00 | 0.00 | 0.00 | ||
| 20260507010510 | 88 | 0 | 2.6 | 7.0 | 0.00 | 0.00 | 0.00 | ||
| 20260507010011 | 88 | 355 | 5.2 | 7.0 | 0.00 | 0.00 | 0.00 | ||
| 20260507005518 | 88 | 13 | 3.5 | 6.1 | 0.00 | 0.00 | 0.00 | ||
| 20260507005019 | 88 | 321 | 1.7 | 5.2 | 0.00 | 0.00 | 0.00 | ||
| 20260507004511 | 88 | 0 | 1.7 | 7.0 | 0.00 | 0.00 | 0.00 | ||
| 20260507004011 | 88 | 357 | 4.3 | 7.0 | 0.00 | 0.00 | 0.00 | ||
| 20260507003513 | 88 | 341 | 4.3 | 8.7 | 0.00 | 0.00 | 0.00 | ||
| 20260507003013 | 88 | 0 | 5.2 | 8.7 | 0.00 | 0.00 | 0.00 | ||
| 20260507002515 | 88 | 352 | 2.6 | 8.7 | 0.00 | 0.00 | 0.00 | ||
| 20260507001512 | 88 | 0 | 4.3 | 7.0 | 0.00 | 0.00 | 0.00 | ||
| 20260507001017 | 88 | 357 | 5.2 | 7.8 | 0.00 | 0.00 | 0.00 | ||
| 20260507000019 | 88 | 355 | 3.5 | 7.8 | 0.00 | 0.00 | 0.00 | ||
| 20260506235519 | 88 | 342 | 3.5 | 5.2 | 0.00 | 0.00 | 0.00 | ||
| 20260506234512 | 88 | 355 | 1.7 | 5.2 | 0.00 | 0.00 | 0.00 | ||
| 20260506234013 | 88 | 338 | 2.6 | 5.2 | 0.00 | 0.00 | 0.00 | ||
| 20260506233519 | 88 | 302 | 1.7 | 6.1 | 0.00 | 0.00 | 0.00 | ||
| 20260506232959 | 88 | 0 | 0.0 | 7.8 | 0.00 | 0.00 | 0.00 | ||
| 20260506232501 | 88 | 0 | 0.9 | 7.8 | 0.00 | 0.00 | 0.00 | ||
| 20260506232023 | 88 | 349 | 1.7 | 4.3 | 0.00 | 0.00 | 0.00 | ||
| 20260506231001 | 88 | 355 | 0.9 | 5.2 | 0.00 | 0.00 | 0.00 | ||
| 20260506230004 | 88 | 0 | 2.6 | 7.0 | 0.00 | 0.00 | 0.00 | ||
| 20260506225505 | 88 | 0 | 2.6 | 6.1 | 0.00 | 0.00 | 0.00 | ||
| 20260506225005 | 88 | 345 | 4.3 | 6.1 | 0.00 | 0.00 | 0.00 | ||
| 20260506224527 | 88 | 345 | 4.3 | 10.4 | 0.00 | 0.00 | 0.00 | ||
| 20260506224020 | 88 | 0 | 5.2 | 10.4 | 0.00 | 0.00 | 0.00 | ||
| 20260506223003 | 87 | 17 | 3.5 | 7.8 | 0.00 | 0.00 | 0.00 | ||
| 20260506222505 | 87 | 335 | 4.3 | 7.8 | 0.00 | 0.00 | 0.00 | ||
| 20260506221504 | 87 | 355 | 4.3 | 7.0 | 0.00 | 0.00 | 0.00 | ||
| 20260506221002 | 87 | 342 | 3.5 | 7.0 | 0.00 | 0.00 | 0.00 | ||
| 20260506220008 | 87 | 0 | 3.5 | 6.1 | 0.00 | 0.00 | 0.00 | ||
| 20260506215014 | 87 | 0 | 0.9 | 7.8 | 0.00 | 0.00 | 0.00 | ||
| 20260506214010 | 87 | 0 | 1.7 | 10.4 | 0.00 | 0.00 | 0.00 | ||
| 20260506213511 | 87 | 92 | 3.5 | 7.0 | 0.00 | 0.00 | 0.00 | ||
| 20260506213010 | 87 | 9 | 0.0 | 7.8 | 0.00 | 0.00 | 0.00 | ||
| 20260506212511 | 87 | 343 | 4.3 | 7.8 | 0.00 | 0.00 | 0.00 | ||
| 20260506212013 | 87 | 0 | 3.5 | 9.6 | 0.00 | 0.00 | 0.00 | ||
| 20260506210015 | 87 | 353 | 8.7 | 20.0 | 0.00 | 0.00 | 0.00 | ||
| 20260506205515 | 86 | 317 | 0.0 | 6.1 | 0.00 | 0.00 | 0.00 | ||
| 20260506204011 | 86 | 0 | 4.3 | 10.4 | 0.00 | 0.00 | 0.00 | ||
| 20260506203512 | 85 | 359 | 4.3 | 9.6 | 0.00 | 0.00 | 0.00 | ||
| 20260506203016 | 85 | 341 | 4.3 | 9.6 | 0.00 | 0.00 | 0.00 | ||
| 20260506202517 | 85 | 0 | 0.9 | 6.1 | 0.00 | 0.00 | 0.00 | ||
| 20260506202018 | 85 | 312 | 2.6 | 7.8 | 0.00 | 0.00 | 0.00 | ||
| 20260506201011 | 85 | 0 | 0.9 | 6.1 | 0.00 | 0.00 | 0.00 | ||
| 20260506200016 | 85 | 356 | 3.5 | 7.0 | 0.00 | 0.00 | 0.00 | ||
| 20260506195459 | 85 | 353 | 2.6 | 7.0 | 0.00 | 0.00 | 0.00 | ||
| 20260506195023 | 85 | 346 | 4.3 | 7.0 | 0.00 | 0.00 | 0.00 | ||
| 20260506194515 | 84 | 359 | 2.6 | 7.0 | 0.00 | 0.00 | 0.00 | ||
| 20260506193503 | 84 | 355 | 0.0 | 6.1 | 0.00 | 0.00 | 0.00 | ||
| 20260506193007 | 83 | 325 | 1.7 | 7.0 | 0.00 | 0.00 | 0.00 | ||
| 20260506192505 | 83 | 357 | 4.3 | 7.0 | 0.00 | 0.00 | 0.00 | ||
| 20260506191520 | 83 | 347 | 1.7 | 8.7 | 0.00 | 0.00 | 0.00 | ||
| 20260506191003 | 83 | 357 | 4.3 | 7.8 | 0.00 | 0.00 | 0.00 | ||
| 20260506190005 | 82 | 0 | 0.9 | 7.0 | 0.00 | 0.00 | 0.00 | ||
| 20260506185506 | 82 | 359 | 0.9 | 7.8 | 0.00 | 0.00 | 0.00 | ||
| 20260506185025 | 82 | 0 | 3.5 | 7.8 | 0.00 | 0.00 | 0.00 | ||
| 20260506184515 | 81 | 321 | 1.7 | 6.1 | 0.00 | 0.00 | 0.00 | ||
| 20260506184015 | 81 | 0 | 1.7 | 6.1 | 0.00 | 0.00 | 0.00 | ||
| 20260506182959 | 80 | 0 | 3.5 | 7.8 | 0.00 | 0.00 | 0.00 | ||
| 20260506182501 | 80 | 0 | 3.5 | 7.8 | 0.00 | 0.00 | 0.00 | ||
| 20260506182023 | 80 | 358 | 4.3 | 7.0 | 0.00 | 0.00 | 0.00 | ||
| 20260506181514 | 80 | 0 | 0.9 | 6.1 | 0.00 | 0.00 | 0.00 | ||
| 20260506181013 | 79 | 35 | 2.6 | 6.1 | 0.00 | 0.00 | 0.00 | ||
| 20260506180516 | 79 | 339 | 2.6 | 6.1 | 0.00 | 0.00 | 0.00 | ||
| 20260506180016 | 79 | 0 | 1.7 | 5.2 | 0.00 | 0.00 | 0.00 | ||
| 20260506175500 | 78 | 359 | 0.0 | 7.0 | 0.00 | 0.00 | 0.00 | ||
| 20260506175020 | 78 | 350 | 3.5 | 7.8 | 0.00 | 0.00 | 0.00 | ||
| 20260506174512 | 78 | 356 | 5.2 | 7.8 | 0.00 | 0.00 | 0.00 | ||
| 20260506174012 | 77 | 337 | 4.3 | 7.8 | 0.00 | 0.00 | 0.00 | ||
| 20260506173515 | 77 | 334 | 0.9 | 7.0 | 0.00 | 0.00 | 0.00 | ||
| 20260506173015 | 77 | 0 | 3.5 | 7.0 | 0.00 | 0.00 | 0.00 | ||
| 20260506172515 | 76 | 0 | 1.7 | 7.0 | 0.00 | 0.00 | 0.00 | ||
| 20260506170515 | 75 | 355 | 5.2 | 7.8 | 0.00 | 0.00 | 0.00 | ||
| 20260506170017 | 75 | 359 | 5.2 | 7.0 | 0.00 | 0.00 | 0.00 | ||
| 20260506165518 | 74 | 344 | 2.6 | 6.1 | 0.00 | 0.00 | 0.00 | ||
| 20260506164514 | 73 | 0 | 0.9 | 7.0 | 0.00 | 0.00 | 0.00 | ||
| 20260506163515 | 73 | 336 | 2.6 | 9.6 | 0.00 | 0.00 | 0.00 | ||
| 20260506163016 | 72 | 0 | 3.5 | 9.6 | 0.00 | 0.00 | 0.00 | ||
| 20260506162502 | 72 | 357 | 2.6 | 7.0 | 0.00 | 0.00 | 0.00 | ||
| 20260506162025 | 71 | 18 | 2.6 | 6.1 | 0.00 | 0.00 | 0.00 | ||
| 20260506161517 | 71 | 335 | 2.6 | 6.1 | 0.00 | 0.00 | 0.00 | ||
| 20260506160521 | 70 | 357 | 1.7 | 6.1 | 0.00 | 0.00 | 0.00 | ||
| 20260506160019 | 70 | 347 | 0.9 | 6.1 | 0.00 | 0.00 | 0.00 | ||
| 20260506154500 | 69 | 347 | 3.5 | 7.0 | 0.00 | 0.00 | 0.00 | ||
| 20260506153959 | 69 | 349 | 4.3 | 6.1 | 0.00 | 0.00 | 0.00 | ||
| 20260506153501 | 68 | 228 | 0.9 | 5.2 | 0.00 | 0.00 | 0.00 | ||
| 20260506153003 | 68 | 350 | 1.7 | 5.2 | 0.00 | 0.00 | 0.00 | ||
| 20260506152504 | 68 | 0 | 2.6 | 5.2 | 0.00 | 0.00 | 0.00 | ||
| 20260506152004 | 67 | 357 | 1.7 | 3.5 | 0.00 | 0.00 | 0.00 | ||
| 20260506151525 | 67 | 0 | 0.9 | 3.5 | 0.00 | 0.00 | 0.00 | ||
| 20260506151014 | 66 | 317 | 0.0 | 2.6 | 0.00 | 0.00 | 0.00 | ||
| 20260506145505 | 65 | 252 | 0.0 | 2.6 | 0.00 | 0.00 | 0.00 | ||
| 20260506145004 | 65 | 354 | 0.0 | 3.5 | 0.00 | 0.00 | 0.00 | ||
| 20260506144527 | 65 | 304 | 0.9 | 3.5 | 0.00 | 0.00 | 0.00 | ||
| 20260506144018 | 64 | 0 | 0.0 | 3.5 | 0.00 | 0.00 | 0.00 | ||
| 20260506143500 | 64 | 359 | 0.9 | 3.5 | 0.00 | 0.00 | 0.00 | ||
| 20260506143020 | 64 | 0 | 1.7 | 4.3 | 0.00 | 0.00 | 0.00 | ||
| 20260506142521 | 63 | 359 | 1.7 | 4.3 | 0.00 | 0.00 | 0.00 | ||
| 20260506142002 | 63 | 278 | 1.7 | 3.5 | 0.00 | 0.00 | 0.00 | ||
| 20260506141524 | 62 | 31 | 0.0 | 3.5 | 0.00 | 0.00 | 0.00 | ||
| 20260506141014 | 62 | 345 | 1.7 | 3.5 | 0.00 | 0.00 | 0.00 | ||
| 20260506140518 | 62 | 0 | 0.0 | 1.7 | 0.00 | 0.00 | 0.00 | ||
| 20260506140000 | 61 | 0 | 0.0 | 0.9 | 0.00 | 0.00 | 0.00 | ||
| 20260506135026 | 61 | 0 | 0.0 | 0.9 | 0.00 | 0.00 | 0.00 | ||
| 20260506134002 | 60 | 0 | 0.0 | 0.9 | 0.00 | 0.00 | 0.00 | ||
| 20260506133007 | 60 | 0 | 0.0 | 0.9 | 0.00 | 0.00 | 0.00 | ||
| 20260506132509 | 60 | 0 | 0.0 | 0.9 | 0.00 | 0.00 | 0.00 | ||
| 20260506132009 | 59 | 0 | 0.0 | 0.0 | 0.00 | 0.00 | 0.00 | ||
| 20260506131503 | 59 | 0 | 0.0 | 0.0 | 0.00 | 0.00 | 0.00 | ||
| 20260506131004 | 59 | 0 | 0.0 | 0.9 | 0.00 | 0.00 | 0.00 | ||
| 20260506130504 | 59 | 0 | 0.0 | 0.9 | 0.00 | 0.00 | 0.00 | ||
| 20260506130004 | 59 | 0 | 0.0 | 0.9 | 0.00 | 0.00 | 0.00 | ||
| 20260506125505 | 59 | 0 | 0.0 | 1.7 | 0.00 | 0.00 | 0.00 | ||
| 20260506124521 | 59 | 0 | 0.0 | 1.7 | 0.00 | 0.00 | 0.00 | ||
| 20260506124018 | 59 | 0 | 0.0 | 0.9 | 0.00 | 0.00 | 0.00 | ||
| 20260506123517 | 59 | 0 | 0.0 | 0.9 | 0.00 | 0.00 | 0.00 | ||
| 20260506123020 | 59 | 0 | 0.0 | 0.0 | 0.00 | 0.00 | 0.00 | ||
| 20260506122504 | 59 | 0 | 0.0 | 0.0 | 0.00 | 0.00 | 0.00 | ||
| 20260506122005 | 59 | 0 | 0.0 | 0.0 | 0.00 | 0.00 | 0.00 | ||
| 20260506120003 | 60 | 0 | 0.0 | 0.0 | 0.00 | 0.00 | 0.00 | ||
| 20260506115505 | 60 | 0 | 0.0 | 0.9 | 0.00 | 0.00 | 0.00 | ||
| 20260506115006 | 60 | 0 | 0.0 | 0.9 | 0.00 | 0.00 | 0.00 | ||
| 20260506114528 | 60 | 0 | 0.0 | 0.9 | 0.00 | 0.00 | 0.00 | ||
| 20260506114000 | 60 | 0 | 0.0 | 0.0 | 0.00 | 0.00 | 0.00 | ||
| 20260506113004 | 60 | 0 | 0.0 | 0.0 | 0.00 | 0.00 | 0.00 | ||
| 20260506112505 | 60 | 0 | 0.0 | 0.0 | 0.00 | 0.00 | 0.00 | ||
| 20260506112024 | 60 | 0 | 0.0 | 0.0 | 0.00 | 0.00 | 0.00 | ||
| 20260506111515 | 60 | 0 | 0.0 | 0.9 | 0.00 | 0.00 | 0.00 | ||
| 20260506111016 | 60 | 0 | 0.0 | 0.9 | 0.00 | 0.00 | 0.00 | ||
| 20260506110509 | 60 | 0 | 0.0 | 0.9 | 0.00 | 0.00 | 0.00 | ||
| 20260506110010 | 61 | 0 | 0.0 | 0.0 | 0.00 | 0.00 | 0.00 | ||
| 20260506105514 | 61 | 0 | 0.0 | 0.9 | 0.00 | 0.00 | 0.00 | ||
| 20260506105014 | 61 | 0 | 0.0 | 0.9 | 0.00 | 0.00 | 0.00 | ||
| 20260506104505 | 61 | 0 | 0.0 | 0.9 | 0.00 | 0.00 | 0.00 | ||
| 20260506104007 | 61 | 0 | 0.0 | 0.9 | 0.00 | 0.00 | 0.00 | ||
| 20260506103011 | 61 | 0 | 0.0 | 0.9 | 0.00 | 0.00 | 0.00 | ||
| 20260506102513 | 61 | 0 | 0.0 | 0.9 | 0.00 | 0.00 | 0.00 | ||
| 20260506102018 | 61 | 0 | 0.0 | 0.9 | 0.00 | 0.00 | 0.00 | ||
| 20260506100500 | 62 | 0 | 0.0 | 0.0 | 0.00 | 0.00 | 0.00 | ||
| 20260506100002 | 62 | 0 | 0.0 | 0.9 | 0.00 | 0.00 | 0.00 | ||
| 20260506095505 | 62 | 0 | 0.0 | 0.9 | 0.00 | 0.00 | 0.00 | ||
| 20260506094501 | 62 | 0 | 0.0 | 0.9 | 0.00 | 0.00 | 0.00 | ||
| 20260506094001 | 63 | 0 | 0.0 | 0.9 | 0.00 | 0.00 | 0.00 | ||
| 20260506093506 | 63 | 0 | 0.0 | 0.9 | 0.00 | 0.00 | 0.00 | ||
| 20260506092510 | 63 | 0 | 0.0 | 0.9 | 0.00 | 0.00 | 0.00 | ||
| 20260506092012 | 63 | 0 | 0.0 | 0.9 | 0.00 | 0.00 | 0.00 | ||
| 20260506090014 | 63 | 0 | 0.0 | 0.9 | 0.00 | 0.00 | 0.00 | ||
| 20260506085513 | 63 | 0 | 0.0 | 0.0 | 0.00 | 0.00 | 0.00 | ||
| 20260506084508 | 64 | 0 | 0.0 | 0.9 | 0.00 | 0.00 | 0.00 | ||
| 20260506083512 | 64 | 0 | 0.0 | 0.9 | 0.00 | 0.00 | 0.00 | ||
| 20260506083011 | 64 | 0 | 0.0 | 0.9 | 0.00 | 0.00 | 0.00 | ||
| 20260506082514 | 64 | 0 | 0.0 | 0.9 | 0.00 | 0.00 | 0.00 | ||
| 20260506082013 | 64 | 0 | 0.0 | 0.0 | 0.00 | 0.00 | 0.00 | ||
| 20260506081506 | 64 | 0 | 0.0 | 0.0 | 0.00 | 0.00 | 0.00 | ||
| 20260506080508 | 65 | 0 | 0.0 | 0.0 | 0.00 | 0.00 | 0.00 | ||
| 20260506073016 | 66 | 0 | 0.0 | 2.6 | 0.00 | 0.00 | 0.00 | ||
| 20260506072516 | 66 | 0 | 0.0 | 1.7 | 0.00 | 0.00 | 0.00 | ||
| 20260506071513 | 67 | 0 | 0.0 | 1.7 | 0.00 | 0.00 | 0.00 | ||
| 20260506071012 | 67 | 0 | 0.0 | 1.7 | 0.00 | 0.00 | 0.00 | ||
| 20260506062023 | 68 | 345 | 0.0 | 2.6 | 0.00 | 0.00 | 0.00 | ||
| 20260506061516 | 68 | 0 | 0.0 | 3.5 | 0.00 | 0.00 | 0.00 | ||
| 20260506061014 | 68 | 0 | 0.0 | 1.7 | 0.00 | 0.00 | 0.00 | ||
| 20260506060516 | 68 | 0 | 0.0 | 0.9 | 0.00 | 0.00 | 0.00 | ||
| 20260506051016 | 71 | 0 | 0.0 | 2.6 | 0.00 | 0.00 | 0.00 | ||
| 20260506050516 | 72 | 0 | 0.0 | 2.6 | 0.00 | 0.00 | 0.00 | ||
| 20260506045021 | 72 | 0 | 0.9 | 4.3 | 0.00 | 0.00 | 0.00 | ||
| 20260506044511 | 72 | 0 | 0.0 | 1.7 | 0.00 | 0.00 | 0.00 | ||
| 20260506043517 | 73 | 0 | 0.0 | 0.9 | 0.00 | 0.00 | 0.00 | ||
| 20260506043017 | 73 | 0 | 0.0 | 1.7 | 0.00 | 0.00 | 0.00 | ||
| 20260506042519 | 73 | 359 | 0.0 | 5.2 | 0.00 | 0.00 | 0.00 | ||
| 20260506042021 | 73 | 325 | 0.0 | 5.2 | 0.00 | 0.00 | 0.00 | ||
| 20260506041513 | 73 | 349 | 2.6 | 5.2 | 0.00 | 0.00 | 0.00 | ||
| 20260506041014 | 73 | 0 | 0.0 | 5.2 | 0.00 | 0.00 | 0.00 | ||
| 20260506040515 | 74 | 0 | 1.7 | 5.2 | 0.00 | 0.00 | 0.00 | ||
| 20260506040016 | 74 | 0 | 0.9 | 3.5 | 0.00 | 0.00 | 0.00 | ||
| 20260506035500 | 74 | 0 | 0.9 | 6.1 | 0.00 | 0.00 | 0.00 | ||
| 20260506035022 | 74 | 0 | 0.0 | 6.1 | 0.00 | 0.00 | 0.00 | ||
| 20260506034516 | 74 | 0 | 0.9 | 6.1 | 0.00 | 0.00 | 0.00 | ||
| 20260506034016 | 74 | 359 | 0.9 | 6.1 | 0.00 | 0.00 | 0.00 | ||
| 20260506033459 | 74 | 0 | 2.6 | 5.2 | 0.00 | 0.00 | 0.00 | ||
| 20260506033000 | 74 | 0 | 2.6 | 7.0 | 0.00 | 0.00 | 0.00 | ||
| 20260506032501 | 74 | 0 | 1.7 | 7.0 | 0.00 | 0.00 | 0.00 | ||
| 20260506032021 | 74 | 0 | 3.5 | 7.0 | 0.00 | 0.00 | 0.00 | ||
| 20260506031516 | 75 | 0 | 3.5 | 6.1 | 0.00 | 0.00 | 0.00 | ||
| 20260506031016 | 75 | 354 | 1.7 | 7.0 | 0.00 | 0.00 | 0.00 | ||
| 20260506030519 | 75 | 0 | 0.9 | 8.7 | 0.00 | 0.00 | 0.00 | ||
| 20260506030020 | 75 | 333 | 4.3 | 10.4 | 0.00 | 0.00 | 0.00 | ||
| 20260506025522 | 75 | 0 | 2.6 | 10.4 | 0.00 | 0.00 | 0.00 | ||
| 20260506025000 | 75 | 356 | 3.5 | 7.0 | 0.00 | 0.00 | 0.00 | ||
| 20260506024003 | 76 | 355 | 2.6 | 8.7 | 0.00 | 0.00 | 0.00 | ||
| 20260506023504 | 76 | 0 | 2.6 | 8.7 | 0.00 | 0.00 | 0.00 | ||
| 20260506023005 | 76 | 0 | 1.7 | 8.7 | 0.00 | 0.00 | 0.00 | ||
| 20260506022505 | 76 | 359 | 1.7 | 8.7 | 0.00 | 0.00 | 0.00 | ||
| 20260506022027 | 76 | 279 | 3.5 | 8.7 | 0.00 | 0.00 | 0.00 | ||
| 20260506021459 | 77 | 357 | 3.5 | 7.8 | 0.00 | 0.00 | 0.00 | ||
| 20260506021000 | 77 | 0 | 4.3 | 7.0 | 0.00 | 0.00 | 0.00 | ||
| 20260506020503 | 77 | 0 | 2.6 | 6.1 | 0.00 | 0.00 | 0.00 | ||
| 20260506020003 | 77 | 0 | 0.9 | 5.2 | 0.00 | 0.00 | 0.00 | ||
| 20260506015506 | 77 | 337 | 0.9 | 6.1 | 0.00 | 0.00 | 0.00 |